Майлуу-Суу

Киргизия     41°15′49″N   72°28′06″E
В апреле 2022 года жителям России запретили посещать сайт meteo.paraplan.net по решению Генеральной прокуратуры. Аудитория сайта уменьшилась в 10 раз. Владельцы сайта не видят смысла в поддержке погодного сервера в таких условиях. Сайт будет закрыт в октябре.
темп.,
°C
ветер,
м/с
пор.,
м/с
влажн.,
%
обл.,
%
осадки,
мм/ч
давл.,
гПа
погр.,
м
6 октября, чт
чт600:00+11св332585 0.0 102319
03:00+10св222263 0.0 102215
06:00+9св33235 0.0 102215
09:00+14ююз01172 0.0 1022215
12:00+18зюз33140 0.0 10191227
15:00+21зюз44130 0.0 10171768
18:00+17зюз33161 0.0 1018115
21:00+12св222316 0.0 102115
7 октября, пт
пт700:00+12св222397 0.0 102112
03:00+12св222383 0.0 102013
06:00+11св2225100 0.0 102110
09:00+14ю0020100 0.0 1021126
12:00+18юз2116100 0.0 1020970
15:00+19зюз3215100 0.0 10181432
18:00+17зюз2318100 0.0 1019171
21:00+13св332228 0.0 102114
8 октября, сб
сб800:00+12св33245 0.0 102215
03:00+12св33251 0.0 102217
06:00+11св33261 0.0 102217
09:00+16св00200 0.0 1022213
12:00+20юз321681 0.0 10211378
15:00+21зюз4315100 0.0 10191764
18:00+18зюз3419100 0.0 102082
21:00+13ссв22260 0.0 102212
9 октября, вс
вс900:00+13св33260 0.0 102318
03:00+12св33270 0.0 102220
06:00+11св33260 0.0 102218
09:00+16в00200 0.0 1022192
12:00+19юз32160 0.0 10211275
15:00+21зюз43140 0.0 10181550
18:00+17зюз34170 0.0 1019105
21:00+13св33235 0.0 102115
10 октября, пн
пн1000:00+12св322457 0.0 102214
03:00+11св322488 0.0 102112
06:00+11св222599 0.0 102112
09:00+14юв002045 0.0 1021175
12:00+19юз32169 0.0 10191157
15:00+21зюз43131 0.0 10161539
18:00+17зюз22170 0.0 101731
21:00+13св32220 0.0 101813